This demonstration page uses our WeatherBlox Daily Observations layout. Learn more.

Left ArrowRight Arrow

39.08367, -84.50855

Hourly Observations for August 21, 2017

Temp ( °F °C ) Dew Point ( °F °C ) Humidity (%) Winds ( mph kmh ) Pressure ( in mb ) Visibility ( mi km ) Precip ( " mm )
12:53 am 00:53 Clear 71 21.7 70 21.1 96 96 N N/A 30.1 1019 8 12.87472 N/A
1:53 am 01:53 Clear with Mist and Fog 70 21.1 70 21.1 100 100 N N/A 30.1 1019 6 9.65604 N/A
2:46 am 02:46 Clear with Mist and Fog 70 21.1 70 21.1 100 100 N N/A 30.09 1019 2 3.21868 N/A
2:53 am 02:53 Clear with Mist and Fog 70 21.1 70 21.1 100 100 N N/A 30.12 1020 4 6.43736 N/A
3:41 am 03:41 Clear with Mist and Fog 69 20.6 69 20.6 100 100 N N/A 30.09 1019 2 3.21868 N/A
3:53 am 03:53 Clear with Mist and Fog 70 21.1 70 21.1 100 100 N N/A 30.11 1020 2.5 4.02335 N/A
4:04 am 04:04 Clear with Mist and Fog 69 20.6 69 20.6 100 100 N N/A 30.09 1019 3 4.82802 N/A
4:07 am 04:07 Clear with Mist and Fog 69 20.6 69 20.6 100 100 N N/A 30.09 1019 1.75 2.816345 N/A
4:24 am 04:24 Clear with Mist and Fog 70 21.1 70 21.1 100 100 N N/A 30.09 1019 2.5 4.02335 N/A
4:38 am 04:38 Clear with Mist and Fog 69 20.6 69 20.6 100 100 N N/A 30.09 1019 1 1.60934 N/A
4:51 am 04:51 Clear with Mist and Fog 70 21 70 21 100 100 N N/A 30.09 1019 3 4.82802 N/A
4:53 am 04:53 Clear with Mist and Fog 69 20.6 69 20.6 100 100 N N/A 30.12 1020 3 4.82802 N/A
5:07 am 05:07 Clear with Mist and Fog 69 20.6 69 20.6 100 100 N N/A 30.09 1019 2.5 4.02335 N/A
5:17 am 05:17 Clear with Mist and Fog 69 20.6 69 20.6 100 100 N N/A 30.12 1020 4 6.43736 N/A
5:27 am 05:27 Clear with Mist and Fog 69 20.6 69 20.6 100 100 N N/A 30.12 1020 1.5 2.41401 N/A
5:48 am 05:48 Mostly Cloudy with Fog 70 21 70 21 100 100 N N/A 30.12 1020 0.5 0.80467 N/A
5:50 am 05:50 Mostly Cloudy with Fog 68 20 68 20 100 100 N N/A 30.12 1020 0.25 0.402335 N/A
5:53 am 05:53 Mostly Cloudy with Fog 68 20 68 20 100 100 N N/A 30.13 1020 0.25 0.402335 N/A
6:00 am 06:00 Mostly Cloudy with Mist and Fog 69 20.6 68 20 96 96 N N/A 30.12 1020 1 1.60934 N/A
6:02 am 06:02 Mostly Clear with Mist and Fog 69 20.6 69 20.6 100 100 N N/A 30.12 1020 2 3.21868 N/A
6:18 am 06:18 Mostly Clear with Mist and Fog 70 21.1 70 21.1 100 100 N N/A 30.12 1020 5 8.0467 N/A
6:53 am 06:53 Clear with Mist and Fog 69 20.6 69 20.6 100 100 N N/A 30.15 1021 5 8.0467 N/A
7:53 am 07:53 Sunny 70 21.1 70 21.1 100 100 N N/A 30.15 1021 7 11.26538 N/A
8:53 am 08:53 Sunny 75 23.9 74 23.3 96 96 SSW 5 7 30.14 1021 7 11.26538 N/A
9:53 am 09:53 Sunny 79 26.1 72 22.2 79 79 S 5 7 30.15 1021 10 16.0934 N/A
10:53 am 10:53 Sunny 84 28.9 73 22.8 70 70 SSE 5 7 30.15 1021 10 16.0934 N/A
11:53 am 11:53 Sunny 88 31.1 73 22.8 61 61 S 10 17 30.14 1021 10 16.0934 N/A
12:53 pm 12:53 Sunny 89 31.7 71 21.7 55 55 SSW 13 20 30.13 1020 10 16.0934 N/A
1:53 pm 13:53 Sunny 89 31.7 70 21.1 53 53 SSW 10 17 30.12 1020 10 16.0934 N/A
2:53 pm 14:53 Sunny 83 28.3 73 22.8 72 72 S 5 7 30.11 1020 10 16.0934 N/A
3:53 pm 15:53 Sunny 90 32.2 72 22.2 56 56 SSW 9 15 30.09 1019 10 16.0934 N/A
4:53 pm 16:53 Sunny 89 31.7 71 21.7 55 55 SSW 9 15 30.08 1019 10 16.0934 N/A
5:53 pm 17:53 Sunny 87 30.6 71 21.7 59 59 SSW 9 15 30.08 1019 10 16.0934 N/A
6:53 pm 18:53 Mostly Sunny 84 28.9 72 22.2 67 67 SW 7 11 30.07 1018 10 16.0934 N/A
7:53 pm 19:53 Sunny 80 26.7 74 23.3 82 82 S 5 7 30.07 1018 10 16.0934 N/A
8:53 pm 20:53 Clear 77 25 72 22.2 85 85 N N/A 30.07 1018 10 16.0934 N/A
9:53 pm 21:53 Clear 77 25 73 22.8 88 88 N N/A 30.07 1018 10 16.0934 N/A
10:53 pm 22:53 Clear 75 23.9 73 22.8 94 94 N N/A 30.07 1018 10 16.0934 N/A
11:53 pm 23:53 Clear 74 23.3 73 22.8 97 97 N N/A 30.06 1018 10 16.0934 N/A

Powered by AerisWeather